User: anonymous   Login
Location: Livonia
(42.3680°N, 83.3530°W)
Time: 02:13:45
(UTC-05:00)
Language:

MOZ.5/SAFIR/RUBIN 5/SL-8 - Orbit

View from above orbital plane
View from above orbital plane
View from above satellite
View from above satellite

Ground track
Ground track

The orbit data is extracted from the following two-line orbital elements,

1 28898U 05043G   14326.52704825  .00000645  00000-0  14439-3 0  9849
2 28898 097.8350 147.3679 0018864 256.1637 165.3812 14.59640797483028
Epoch (UTC): 22 November 2014 12:38:56
Eccentricity: 0.0018864
inclination: 97.8350°
perigee height: 681 km
apogee height: 707 km
right ascension of ascending node: 147.3679°
argument of perigee: 256.1637°
revolutions per day: 14.59640797
mean anomaly at epoch: 165.3812°
orbit number at epoch: 48302

The dashed part of the orbit path shows where the satellite is in the earth's shadow,  

DLR